Showing default

ZHUHAI-1 03E, 44539

Orbit data source: Space-Track

ZHUHAI-1 03E, 44539 is a payload satellite owned by Zhuhai Orbita (CN) in SSO that was launched on Thu, 19 Sep 2019 UTC via a CHANG ZHENG 11 launch vehicle from the Jiuquan Satellite Launch Center, China (JSC). Payload-class satellites include a variety of spacecraft equipped with specific instruments for various scientific and technological missions. These include communications satellites like Starlink; space stations such as the ISS; scientific satellites like the Hubble; Earth observation satellites from companies like Planet Labs, Umbra, and HawkEye 360; GPS; miniature CubeSats for education and research; and military/defense satellites.

Loading next visibility...
Identifier
44539, 2019-060F
Orbit
SSO
Last TLE update
10 hours ago
Origin
Manufacturer
Harbin
Mission
Operational Commercial Imaging
Bus & Motor
OVS-1, Unknown motor
Mass
95 kg wet, 95 kg dry
Launch date (UTC)
2019-09-19 (6 years ago)
Launch vehicle
CHANG ZHENG 11
Launch site
Jiuquan Satellite Launch Center, China (JSC)
Object type
Payload
Rocket body
Debris
Shape & HBR
Box, Unknown HBR
Radar Cross Section
0.375 m², Medium (>0.1 m² and < 1m²)

Expand to show TLE details & history

TLE from 10 hours ago
0 ZHUHAI-1 03E
1 44539U 19060F   25188.92381521  .00009735  00000-0  36157-3 0  9995
2 44539  97.5226 326.5113 0012262 152.5031 207.6859 15.27699585322987
Epoch: 2025-07-07T22:10Z
TLE epoch observation values (Epoch: 2025-07-07T22:10:17.634Z)
Latitude
-0.00002°
Longitude
67.81164°
Altitude
493.242 km
Speed
7.614 km/s
True Right ascension
21h 46m 02s
True Declination
0° 00' 00"
Sunlit
Object was in full shadow at epoch
Visualization orbit readout
Latitude
64.80432°
Longitude
52.01158°
Altitude
493.169 km
Speed
7.625 km/s
Apparent Right ascension
06h 57m 23s
Apparent Declination
45° 23' 44"
Sunlit
Object is in daylight
Visualization observer readout
Local Sidereal Time
19:59:03
Azimuth
10.779° NNE
Elevation
-3.575°
Doppler factor
1
Orbital elements
Apogee altitude
488.061 km
Perigee altitude
471.243 km
Semi-major axis
6,857.789 km
Eccentricity
0.00123
Inclination
97.5226°
RAAN
326.5113°
Arg. of periapsis
152.5031°
True anomaly
Unknown
Mean anomaly
207.6859°
Eccentric anomaly
Unknown
Mean motion
3.82179 °/min
Orbital period
94.2 mins
BSTAR
0.00036157
Loading maneuver chart data...
Loading SW <> Apogee altitude chart data...
Loading historical data...
Loading historical data...
Loading historical data...
Loading historical data...
Loading historical data...
Loading historical data...
Loading historical data...

ZHUHAI-1 03E Visibility forecast

Observer location: undefined°, undefined°

Span
Click to sort rows by Start time (UTC) header in descending order
Start Az.
Max El. time (UTC)
Max El. Az.
Max El.
End time (UTC)
End Az.
6 mins2025-07-08 09:18:26.077Z172.248° S2025-07-08 09:21:26.077Z320.148° NNW42.58°2025-07-08 09:24:26.077Z345.144° N
5 mins2025-07-08 22:19:26.077Z356.014° N2025-07-08 22:21:26.077Z287.354° WNW39.628°2025-07-08 22:24:26.077Z208.103° SW
|